2022-058D (52788 NORAD) Tracking and Keplerian Element Data

This shows tracking and keplerian element data for the satellite.

Feedback or suggestion? Click here.




ElementValue
Catalog52788
Name2022-058D
Epoch Orbit593
Epoch Day193.13457704
Epoch Year2022
RAAN74.6382
Inclination50.0077
Eccentricity0.0012935
Argument of Perigee84.9509
Mean Anonmoly275.2916
Mean Motion14.86812131
Decay Rate1.405E-05
L11 52788U 22058D 22193.13457704 .00001405 00000+0 18179-3 0 9993
L22 52788 50.0077 74.6382 0012935 84.9509 275.2916 14.86812131 5930

Live tracking and technical data element details for 2022-058D (NORAD 52788). 2022-058D can be tracked NOW for your location showing map with azimuth and elevation plus other details from your city location.

Track the satellite on the map from your city or location and see movement details for azimuth, elevation, latitude, longitude, range, height, and movement on the map or in text.







IsCatalogInMostPopularTable: catalog: 52788, numindb: 4
Update: records affected: 1



GetName: 52788 2022-058D

Hit Count: updated at: Sun, 14 Aug 2022 01:18:50 GMT